Simultaneous Nadir Overpasses (SNOs) Predictions

Prediction of SNOs between GOES-15 and METOP-A Satellite Orbit:

Table of predicted SNOs for the next 14.0 days since TLE Epoch: 9/28/2012
Index Date Time (GOES-15) GOES-15 Lat,Lon METOP-A Lat,Lon Distance(km) Time Diff (sec)
1 09/28/2012 18:32:58 -0.35,-135.36 -0.18,-136.04 77.85 80
2 09/29/2012 18:14:58 -0.34,-135.38 -1.33,-131.05 493.61 80
3 10/01/2012 06:33:57 0.35,-135.39 0.28,-135.64 29.65 80
4 10/03/2012 18:32:06 -0.35,-135.43 -0.40,-135.20 25.95 80
5 10/05/2012 06:51:05 0.36,-135.43 -0.63,-139.79 496.72 80
6 10/06/2012 06:27:43 0.35,-135.44 0.48,-134.79 73.89 80
7 10/07/2012 18:46:31 -0.35,-135.45 0.50,-139.34 442.64 80
8 10/08/2012 18:28:29 -0.34,-135.46 -0.57,-134.33 128.24 80
9 10/10/2012 06:47:26
